Location: Carlingford
(46.7848°N, 67.7474°W)
Time: 22:19:50
(UTC+00:00)

ISS - Visible Passes

Search period start: 28 November 2022 00:00
Search period end: 08 December 2022 00:00
Orbit: 411 x 420 km, 51.6° (Epoch: 28 November)

Date Brightness Start Highest point End Pass type
(mag) Time Alt. Az. Time Alt. Az. Time Alt. Az.
28 Nov -2.8 22:17:18 10° WNW 22:20:24 34° N 22:21:09 30° NNE visible
29 Nov -2.8 21:28:30 10° WNW 21:31:35 34° N 21:34:26 11° ENE visible
29 Nov -2.1 23:05:27 10° WNW 23:07:20 29° NW 23:07:20 29° NW visible
30 Nov -3.2 22:16:43 10° WNW 22:19:56 42° NNE 22:20:38 36° NE visible
30 Nov -0.2 23:53:28 10° WNW 23:53:32 10° WNW 23:53:32 10° WNW visible
01 Dec -3.0 21:27:56 10° WNW 21:31:04 36° N 21:34:00 11° ENE visible
01 Dec -2.5 23:04:40 10° WNW 23:06:54 39° WNW 23:06:54 39° WNW visible
02 Dec -3.8 22:15:54 10° WNW 22:19:14 69° NNE 22:20:21 37° E visible
02 Dec -0.3 23:53:00 10° W 23:53:15 11° W 23:53:15 11° W visible
03 Dec -3.5 21:27:06 10° WNW 21:30:22 51° NNE 21:33:38 10° E visible
03 Dec -2.4 23:03:56 10° WNW 23:06:50 36° SW 23:06:50 36° SW visible
04 Dec -3.3 22:15:00 10° WNW 22:18:17 58° SSW 22:20:35 18° SE visible
05 Dec -3.8 21:26:06 10° WNW 21:29:28 89° SSW 21:32:47 10° ESE visible
05 Dec -1.0 23:03:37 10° W 23:05:46 16° SW 23:07:32 12° S visible
06 Dec -1.5 22:14:15 10° W 22:17:03 25° SW 22:19:51 10° SSE visible
07 Dec -2.3 21:25:06 10° WNW 21:28:15 40° SW 21:31:24 10° SE visible
